TimeCDT,TemperatureF,Dew PointF,Humidity,Sea Level PressureIn,VisibilityMPH,Wind Direction,Wind SpeedMPH,Gust SpeedMPH,PrecipitationIn,Events,Conditions,WindDirDegrees,DateUTC
12:53 AM,78.1,57.9,50,29.92,10.0,SSE,5.8,-,N/A,,Clear,160,2013-09-16 05:53:00
1:53 AM,77.0,59.0,54,29.91,10.0,SSE,8.1,-,N/A,,Clear,160,2013-09-16 06:53:00
2:53 AM,77.0,61.0,58,29.92,10.0,SSE,6.9,-,N/A,,Clear,150,2013-09-16 07:53:00
3:53 AM,75.0,61.0,62,29.92,10.0,SE,6.9,-,N/A,,Clear,140,2013-09-16 08:53:00
4:53 AM,73.0,62.1,68,29.94,10.0,SE,6.9,-,N/A,,Clear,130,2013-09-16 09:53:00
5:53 AM,71.1,62.1,73,29.95,10.0,ESE,5.8,-,N/A,,Clear,110,2013-09-16 10:53:00
6:53 AM,69.1,62.1,78,29.96,10.0,ESE,5.8,-,N/A,,Clear,110,2013-09-16 11:53:00
7:53 AM,68.0,62.1,81,29.99,10.0,East,4.6,-,N/A,,Clear,90,2013-09-16 12:53:00
8:53 AM,71.1,63.0,75,30.00,10.0,East,6.9,-,N/A,,Mostly Cloudy,100,2013-09-16 13:53:00
9:53 AM,73.9,64.0,71,30.01,10.0,SE,10.4,-,N/A,,Scattered Clouds,130,2013-09-16 14:53:00
10:53 AM,77.0,64.0,64,30.02,10.0,SE,10.4,-,N/A,,Mostly Cloudy,140,2013-09-16 15:53:00
11:53 AM,79.0,64.0,60,30.02,10.0,SE,12.7,19.6,N/A,,Mostly Cloudy,140,2013-09-16 16:53:00
12:53 PM,82.0,63.0,52,30.01,10.0,SE,9.2,-,N/A,,Mostly Cloudy,130,2013-09-16 17:53:00
1:53 PM,82.9,62.1,49,29.99,10.0,SE,11.5,-,N/A,,Scattered Clouds,130,2013-09-16 18:53:00
2:53 PM,84.9,61.0,44,29.95,10.0,SE,11.5,18.4,N/A,,Partly Cloudy,140,2013-09-16 19:53:00
3:53 PM,86.0,60.1,41,29.92,10.0,ESE,8.1,17.3,N/A,,Partly Cloudy,110,2013-09-16 20:53:00
4:53 PM,87.1,59.0,39,29.89,10.0,East,9.2,16.1,N/A,,Partly Cloudy,90,2013-09-16 21:53:00
5:53 PM,88.0,55.9,34,29.88,10.0,ESE,9.2,-,N/A,,Clear,110,2013-09-16 22:53:00
6:53 PM,87.1,57.9,37,29.89,10.0,East,10.4,-,N/A,,Clear,100,2013-09-16 23:53:00
7:53 PM,84.9,57.0,38,29.90,10.0,ESE,12.7,-,N/A,,Clear,110,2013-09-17 00:53:00
8:53 PM,77.0,62.1,60,29.95,10.0,ENE,17.3,27.6,N/A,,Overcast,70,2013-09-17 01:53:00
9:53 PM,75.9,64.0,67,29.96,10.0,East,13.8,-,N/A,,Scattered Clouds,80,2013-09-17 02:53:00
10:53 PM,75.9,63.0,64,29.98,10.0,East,16.1,-,N/A,,Mostly Cloudy,100,2013-09-17 03:53:00
11:53 PM,75.0,64.0,69,29.99,10.0,East,9.2,-,N/A,,Clear,90,2013-09-17 04:53:00